Location: Borgo
(42.3939°N, 9.2791°E)
Time: 21:49:03
(UTC+00:00)

Okean 1-7 Rocket - Pass Details

Date: 24 January 2021
Orbit: 615 x 650 km, 82.5° (Epoch: 03 March)

Event Time Altitude Azimuth Distance (km) Brightness Sun altitude
Rises 17:21:16 0° 191° (S) 2,942 7.4 -10.2°
Reaches altitude 10° 17:23:30 10° 193° (SSW) 2,040 6.6 -10.6°
Maximum altitude 17:28:03 74° 279° (W) 679 3.9 -11.4°
Drops below altitude 10° 17:32:38 10° 4° (N) 2,064 6.0 -12.3°
Sets 17:34:54 0° 7° (N) 2,979 6.8 -12.7°
